Weather History For Prescott AZ
This page updates 5 minutes after midnight. GMT -7
Station: KPRC0 Rows: 26
| Year | Date | Temp (°F) | Tmin (°F) | Tmax (°F) | RH% | Prcp | Snow | Wind | Gust | Pres | Sun | Cloud |
|---|---|---|---|---|---|---|---|---|---|---|---|---|
| 2000 | 2000-04-24 | 60.4 | 43.0 | 75.9 | 32 | — | — | 10.3 | — | 29.91 | — | 0 |
| 2001 | 2001-04-24 | 57.0 | 36.0 | 75.0 | 33 | — | — | 9.4 | — | 30.06 | — | 0 |
| 2002 | 2002-04-24 | 63.7 | 44.6 | 80.6 | 24 | — | — | 13.0 | — | 30.00 | — | 0 |
| 2003 | 2003-04-24 | 53.1 | 35.6 | 66.2 | 37 | — | — | 12.5 | — | 29.88 | — | 0 |
| 2004 | 2004-04-24 | 54.5 | — | — | 37 | — | — | 10.1 | — | 29.95 | — | 0 |
| 2005 | 2005-04-24 | 47.7 | 41.0 | 54.0 | 69 | — | — | 17.8 | — | 29.77 | — | 5 |
| 2006 | 2006-04-24 | 50.2 | 34.0 | 64.9 | 37 | 0.0 | — | 11.1 | — | 29.92 | — | 1 |
| 2007 | 2007-04-24 | 53.4 | — | — | 42 | 0.0 | — | 11.9 | — | 29.99 | — | 1 |
| 2008 | 2008-04-24 | 56.1 | 41.0 | 71.1 | 23 | 0.0 | — | 12.9 | — | 29.87 | — | 0 |
| 2009 | 2009-04-24 | 61.3 | 51.1 | 71.1 | 24 | 0.0 | — | 20.7 | — | 29.78 | — | 0 |
| 2010 | 2010-04-24 | 53.2 | 36.0 | 68.0 | 45 | 0.0 | — | 10.7 | — | 29.95 | — | 0 |
| 2011 | 2011-04-24 | 56.7 | 46.9 | 68.0 | 40 | 0.0 | — | 20.4 | — | 29.73 | — | 2 |
| 2012 | 2012-04-24 | 66.6 | 42.1 | 80.1 | 16 | 0.0 | — | 14.4 | — | 29.88 | — | 0 |
| 2013 | 2013-04-24 | 56.7 | 37.0 | 72.0 | 17 | 0.0 | — | 9.1 | — | 29.86 | — | 0 |
| 2014 | 2014-04-24 | 57.0 | 39.0 | 73.9 | 19 | 0.0 | — | 11.2 | — | 29.89 | — | 0 |
| 2015 | 2015-04-24 | 52.3 | — | — | 52 | — | — | 18.9 | — | 29.80 | — | — |
| 2016 | 2016-04-24 | 57.0 | 39.0 | 72.0 | 23 | 0.0 | — | 13.2 | — | 29.79 | — | 0 |
| 2017 | 2017-04-24 | 62.1 | 48.0 | 71.1 | 26 | 0.0 | — | 14.9 | — | 29.65 | — | 0 |
| 2018 | 2018-04-24 | 66.4 | 48.0 | 82.0 | 20 | 0.0 | — | 13.5 | — | 29.91 | — | 0 |
| 2019 | 2019-04-24 | 62.4 | 44.1 | 77.0 | 36 | 0.0 | — | 10.3 | — | 29.90 | — | 0 |
| 2020 | 2020-04-24 | 62.8 | 46.9 | 79.0 | 30 | 0.0 | — | 12.2 | — | 29.92 | — | 0 |
| 2021 | 2021-04-24 | 59.0 | 44.1 | 70.0 | 27 | 0.0 | — | 16.6 | — | 29.85 | — | 0 |
| 2022 | 2022-04-24 | 50.9 | 33.1 | 64.9 | 21 | 0.0 | — | 11.3 | — | 29.96 | — | 0 |
| 2023 | 2023-04-24 | 62.2 | 50.0 | 73.0 | 31 | 0.0 | — | 18.8 | — | 29.72 | — | 1 |
| 2024 | 2024-04-24 | 60.8 | 45.0 | 73.0 | 26 | 0.0 | — | 14.4 | — | 29.86 | — | 0 |
| 2025 | 2025-04-24 | 58.6 | 44.1 | 71.1 | 30 | 0.0 | — | 11.0 | — | 29.83 | — | 0 |